一网星座-0666星 (ONEWEB-0666)

导读 | 豆包AI

ONEWEB-0666是英国OneWeb公司低轨宽带卫星星座中的一颗卫星,于2023年3月9日由SpaceX猎鹰9号火箭从美国卡纳维拉尔角航天站发射,此次任务共将40颗OneWeb卫星送入低地球轨道,是OneWeb星座组网的重要一环。OneWeb旨在通过低轨卫星星座实现全球宽带互联网覆盖,为偏远及基础设施薄弱区域提供网络接入服务,该星的成功部署助力OneWeb接近完成600余颗卫星的初始组网目标。

Basic Information
目录编号:
55826
目录名称:
ONEWEB-0666
国际标识:
2023-029AG
轨道中心:
EARTH
卫星名称:
一网星座-0666星
卫星全名:
一网星座-0666星 (ONEWEB-0666)
卫星状态:
在轨 (已飞行1150 天)
发射日期:
2023-03-09 UTC
国别 :
英国 (GB)
星等 :
--
Orbit Information
数据来源 国际轨道数据 AOE轨道数据
星历时间 2026-05-02T05:32:45+0800
13小时前
查看轨道信息
2026-04-27T16:00:00+0800
5天前
查看轨道信息
半长轴 7559.919km 7559.918km
偏心率 0.0001358 0.0001268
轨道倾角 87.914° 87.914°
近地点辐角 115.804° 100.716°
升交点赤经 283.713° 284.626°
平近点角 244.323° 169.122°
近地点 1180.755km 1180.822km
远地点 1182.809km 1182.74km
周期 109.027分钟 109.027分钟
每日圈数 13.207698 13.207699
Detailed Information
平衡模式:
三轴稳定
覆盖范围:
全球
运营商:
一网卫星公司
运营商所在国:
英国
制造商(研发单位):
一网卫星公司
制造商所在国:
英国
使用方式:
暂无
Satellite Introduction
OneWeb卫星网络由648颗重约125公斤的微型卫星组成,运行在1200公里的轨道上。 每颗卫星都能够提供至少每秒8千兆位的吞吐量,以使用其高吞吐量的Ku频段有效载荷为家庭和移动平台提供互联网接入。该卫星仍在工作。
2D Orbit Map
3D Orbit Map
Orbit Altitude Analysis Chart
Orbit Inclination Analysis Chart
Orbit Comprehensive Analysis Chart
View Comprehensive Chart